Find Starlink 5902

NORAD ID: 55998 Int'l Des: 2023-042 Owner: SPXS Country: US Constellation: starlink operational
LEOCIRCULAR

Live Position

Loading 3D Globe...

About Starlink 5902

Description loading...

Upcoming Passes

Passes for default location (London). Set your location on the main map for personalized predictions.

Altitude History

Loading altitude history...

Two-Line Element Set

1 55998U 23042N 26121.26783681 -.00000190 00000-0 25958-5 0 9995
2 55998 43.0038 122.4084 0001836 286.9820 73.0831 15.26735946170918
Epoch: May 1, 2026 • Age: 6 hours

Current Status

Altitude 495.3 km
Velocity 7.62 km/s
Sub-Earth Point -37.27°S, 20.76°E
Launch Date Mar 24, 2023
Age 3.1 years
Type internet

Technical Details

Classification Payload
Mass 305.00 kg
Dry Mass 290.00 kg
Total Mass 305.00 kg
Length 0.20 m
Diameter 2.80 m
Span 9.00 m
Shape Box + pan
Manufacturer SPXS
Bus Type Starlink
Phase Status In Orbit
Owner/State SPXS/US

Most Searched